Location: Litvinovka
(48.6667°N, 34.3500°E)
Time: 03:30:03
(UTC+00:00)

Cosmos 1833 Rocket - Pass Details

Date: 18 September 2020
Orbit: 831 x 841 km, 71.0° (Epoch: 22 October)

Event Time Altitude Azimuth Distance (km) Brightness Sun altitude
Rises 18:17:47 0° 334° (NNW) 3,408 6.8 -24.1°
Reaches altitude 10° 18:20:23 10° 342° (NNW) 2,470 5.8 -24.4°
Maximum altitude 18:25:45 42° 52° (NE) 1,196 3.3 -25.2°
Enters shadow 18:25:57 41° 58° (ENE) 1,198 3.3 -25.2°
